| time (UTC) | temp F | wind direction | speed MPH | gust MPH | rain 1hr in | rain 24hr in | rain mn in | humidity % | barometer mb |
| 20260905214439 | 96 | 74 | 1.0 | 5.0 | 0.00 | 0.00 | 0.00 | 56 | 1012.7 |
| 20260905213939 | 95 | 222 | 1.0 | 5.0 | 0.00 | 0.00 | 0.00 | 57 | 1012.8 |
| 20260905213437 | 95 | 41 | 1.0 | 5.0 | 0.00 | 0.00 | 0.00 | 58 | 1012.8 |
| 20260905213157 | 94 | 90 | 0.0 | 0.0 | 0.00 | 0.00 | 0.00 | 58 | 1012.9 |
| 20260905212436 | 94 | 208 | 0.0 | 3.0 | 0.00 | 0.00 | 0.00 | 58 | 1012.9 |
| 20260905212154 | 94 | 82 | 0.0 | 4.0 | 0.00 | 0.00 | 0.00 | 58 | 1012.8 |
| 20260905211434 | 95 | 231 | 2.0 | 8.0 | 0.00 | 0.00 | 0.00 | 58 | 1013.0 |
| 20260905210934 | 95 | 257 | 2.0 | 8.0 | 0.00 | 0.00 | 0.00 | 58 | 1013.0 |
| 20260905210434 | 95 | 82 | 2.0 | 6.0 | 0.00 | 0.00 | 0.00 | 56 | 1013.1 |
| 20260905205935 | 95 | 193 | 3.0 | 7.0 | 0.00 | 0.00 | 0.00 | 52 | 1013.3 |
| 20260905205435 | 94 | 289 | 5.0 | 13.0 | 0.00 | 0.00 | 0.00 | 52 | 1013.3 |
| 20260905204931 | 96 | 305 | 3.0 | 13.0 | 0.00 | 0.00 | 0.00 | 54 | 1013.2 |
| 20260905204430 | 98 | 297 | 1.0 | 7.0 | 0.00 | 0.00 | 0.00 | 54 | 1013.1 |
| 20260905203929 | 99 | 339 | 2.0 | 6.0 | 0.00 | 0.00 | 0.00 | 53 | 1013.0 |
| 20260905203431 | 99 | 359 | 2.0 | 9.0 | 0.00 | 0.00 | 0.00 | 53 | 1013.0 |
| 20260905202931 | 100 | 1 | 2.0 | 9.0 | 0.00 | 0.00 | 0.00 | 52 | 1013.0 |
| 20260905202431 | 100 | 10 | 2.0 | 7.0 | 0.00 | 0.00 | 0.00 | 51 | 1013.0 |
| 20260905201929 | 99 | 253 | 2.0 | 7.0 | 0.00 | 0.00 | 0.00 | 51 | 1013.0 |
| 20260905201658 | 98 | 290 | 1.0 | 6.0 | 0.00 | 0.00 | 0.00 | 52 | 1013.1 |
| 20260905201154 | 98 | 3 | 1.0 | 6.0 | 0.00 | 0.00 | 0.00 | 52 | 1013.3 |
| 20260905200428 | 98 | 21 | 1.0 | 7.0 | 0.00 | 0.00 | 0.00 | 52 | 1013.4 |
| 20260905195933 | 99 | 8 | 2.0 | 8.0 | 0.00 | 0.00 | 0.00 | 51 | 1013.5 |
| 20260905195645 | 99 | 352 | 2.0 | 8.0 | 0.00 | 0.00 | 0.00 | 49 | 1013.5 |
| 20260905195601 | 99 | 6 | 3.0 | 8.0 | 0.00 | 0.00 | 0.00 | 50 | 1013.5 |
| 20260905194427 | 99 | 324 | 3.0 | 8.0 | 0.00 | 0.00 | 0.00 | 49 | 1013.4 |
| 20260905193928 | 99 | 12 | 3.0 | 8.0 | 0.00 | 0.00 | 0.00 | 51 | 1013.5 |
| 20260905193429 | 98 | 303 | 2.0 | 7.0 | 0.00 | 0.00 | 0.00 | 51 | 1013.5 |
| 20260905192928 | 98 | 10 | 1.0 | 6.0 | 0.00 | 0.00 | 0.00 | 51 | 1013.5 |
| 20260905192422 | 99 | 60 | 2.0 | 5.0 | 0.00 | 0.00 | 0.00 | 51 | 1013.6 |
| 20260905191916 | 100 | 93 | 2.0 | 7.0 | 0.00 | 0.00 | 0.00 | 49 | 1013.4 |
| 20260905191410 | 100 | 241 | 3.0 | 9.0 | 0.00 | 0.00 | 0.00 | 49 | 1013.5 |
| 20260905190905 | 100 | 339 | 3.0 | 9.0 | 0.00 | 0.00 | 0.00 | 49 | 1013.5 |
| 20260905190358 | 100 | 6 | 1.0 | 8.0 | 0.00 | 0.00 | 0.00 | 50 | 1013.6 |
| 20260905185852 | 100 | 96 | 1.0 | 6.0 | 0.00 | 0.00 | 0.00 | 48 | 1013.6 |
| 20260905185405 | 100 | 274 | 2.0 | 7.0 | 0.00 | 0.00 | 0.00 | 49 | 1013.7 |
| 20260905184853 | 99 | 35 | 3.0 | 7.0 | 0.00 | 0.00 | 0.00 | 49 | 1013.8 |
| 20260905184352 | 99 | 314 | 2.0 | 7.0 | 0.00 | 0.00 | 0.00 | 50 | 1013.8 |
| 20260905183853 | 99 | 69 | 1.0 | 5.0 | 0.00 | 0.00 | 0.00 | 50 | 1013.9 |
| 20260905183353 | 99 | 13 | 2.0 | 9.0 | 0.00 | 0.00 | 0.00 | 50 | 1014.0 |
| 20260905182854 | 99 | 359 | 3.0 | 9.0 | 0.00 | 0.00 | 0.00 | 50 | 1014.0 |
| 20260905182356 | 99 | 65 | 3.0 | 10.0 | 0.00 | 0.00 | 0.00 | 51 | 1014.1 |
| 20260905181852 | 98 | 314 | 3.0 | 10.0 | 0.00 | 0.00 | 0.00 | 50 | 1014.1 |
| 20260905181351 | 98 | 324 | 4.0 | 10.0 | 0.00 | 0.00 | 0.00 | 50 | 1014.1 |
| 20260905180853 | 98 | 282 | 5.0 | 10.0 | 0.00 | 0.00 | 0.00 | 49 | 1014.2 |
| 20260905180352 | 98 | 301 | 5.0 | 11.0 | 0.00 | 0.00 | 0.00 | 50 | 1014.3 |
| 20260905175852 | 98 | 314 | 4.0 | 11.0 | 0.00 | 0.00 | 0.00 | 50 | 1014.3 |
| 20260905175609 | 98 | 30 | 3.0 | 10.0 | 0.00 | 0.00 | 0.00 | 51 | 1014.3 |
| 20260905174851 | 98 | 346 | 4.0 | 8.0 | 0.00 | 0.00 | 0.00 | 50 | 1014.2 |
| 20260905174351 | 99 | 48 | 4.0 | 10.0 | 0.00 | 0.00 | 0.00 | 52 | 1014.3 |
| 20260905173857 | 98 | 289 | 3.0 | 10.0 | 0.00 | 0.00 | 0.00 | 51 | 1014.4 |
| 20260905173849 | 98 | 284 | 3.0 | 10.0 | 0.00 | 0.00 | 0.00 | 52 | 1014.4 |
| 20260905172845 | 98 | 309 | 4.0 | 10.0 | 0.00 | 0.00 | 0.00 | 51 | 1014.3 |
| 20260905172341 | 98 | 302 | 4.0 | 8.0 | 0.00 | 0.00 | 0.00 | 51 | 1014.5 |
| 20260905171842 | 98 | 342 | 4.0 | 8.0 | 0.00 | 0.00 | 0.00 | 52 | 1014.5 |
| 20260905171341 | 97 | 306 | 3.0 | 8.0 | 0.00 | 0.00 | 0.00 | 51 | 1014.6 |
| 20260905170847 | 97 | 20 | 3.0 | 9.0 | 0.00 | 0.00 | 0.00 | 54 | 1014.5 |
| 20260905170604 | 98 | 39 | 3.0 | 9.0 | 0.00 | 0.00 | 0.00 | 54 | 1014.7 |
| 20260905165841 | 98 | 33 | 3.0 | 8.0 | 0.00 | 0.00 | 0.00 | 54 | 1014.7 |
| 20260905165341 | 98 | 12 | 3.0 | 8.0 | 0.00 | 0.00 | 0.00 | 56 | 1014.7 |
| 20260905164841 | 97 | 130 | 2.0 | 7.0 | 0.00 | 0.00 | 0.00 | 55 | 1014.7 |
| 20260905164350 | 96 | 5 | 2.0 | 6.0 | 0.00 | 0.00 | 0.00 | 57 | 1014.8 |
| 20260905164340 | 97 | 61 | 1.0 | 6.0 | 0.00 | 0.00 | 0.00 | 55 | 1014.8 |
| 20260905163339 | 96 | 62 | 3.0 | 8.0 | 0.00 | 0.00 | 0.00 | 57 | 1014.8 |
| 20260905162839 | 96 | 299 | 3.0 | 8.0 | 0.00 | 0.00 | 0.00 | 57 | 1014.9 |
| 20260905162341 | 96 | 256 | 1.0 | 4.0 | 0.00 | 0.00 | 0.00 | 59 | 1014.9 |
| 20260905161839 | 95 | 353 | 1.0 | 4.0 | 0.00 | 0.00 | 0.00 | 60 | 1014.9 |
| 20260905161340 | 95 | 17 | 0.0 | 8.0 | 0.00 | 0.00 | 0.00 | 61 | 1015.1 |
| 20260905160854 | 94 | 91 | 1.0 | 8.0 | 0.00 | 0.00 | 0.00 | 60 | 1015.0 |
| 20260905160340 | 94 | 264 | 3.0 | 8.0 | 0.00 | 0.00 | 0.00 | 61 | 1015.0 |
| 20260905155839 | 94 | 287 | 2.0 | 8.0 | 0.00 | 0.00 | 0.00 | 61 | 1015.0 |
| 20260905155339 | 94 | 343 | 1.0 | 4.0 | 0.00 | 0.00 | 0.00 | 61 | 1015.1 |
| 20260905154839 | 94 | 324 | 1.0 | 5.0 | 0.00 | 0.00 | 0.00 | 61 | 1015.2 |
| 20260905154339 | 94 | 20 | 1.0 | 5.0 | 0.00 | 0.00 | 0.00 | 61 | 1015.3 |
| 20260905153840 | 93 | 305 | 1.0 | 4.0 | 0.00 | 0.00 | 0.00 | 63 | 1015.3 |
| 20260905153339 | 93 | 263 | 1.0 | 4.0 | 0.00 | 0.00 | 0.00 | 64 | 1015.2 |
| 20260905153102 | 93 | 245 | 1.0 | 4.0 | 0.00 | 0.00 | 0.00 | 63 | 1015.2 |
| 20260905152339 | 92 | 59 | 1.0 | 4.0 | 0.00 | 0.00 | 0.00 | 63 | 1015.2 |
| 20260905151845 | 92 | 324 | 1.0 | 6.0 | 0.00 | 0.00 | 0.00 | 65 | 1015.3 |
| 20260905151339 | 91 | 51 | 1.0 | 6.0 | 0.00 | 0.00 | 0.00 | 64 | 1015.3 |
| 20260905150840 | 91 | 353 | 1.0 | 7.0 | 0.00 | 0.00 | 0.00 | 65 | 1015.2 |
| 20260905150339 | 91 | 74 | 1.0 | 7.0 | 0.00 | 0.00 | 0.00 | 65 | 1015.1 |
| 20260905150056 | 90 | 355 | 1.0 | 4.0 | 0.00 | 0.00 | 0.00 | 67 | 1015.0 |
| 20260905145605 | 90 | 14 | 1.0 | 4.0 | 0.00 | 0.00 | 0.00 | 67 | 1015.1 |
| 20260905144839 | 89 | 295 | 1.0 | 4.0 | 0.00 | 0.00 | 0.00 | 68 | 1015.2 |
| 20260905144338 | 89 | 355 | 1.0 | 6.0 | 0.00 | 0.00 | 0.00 | 69 | 1015.0 |
| 20260905143838 | 89 | 246 | 1.0 | 6.0 | 0.00 | 0.00 | 0.00 | 69 | 1015.0 |
| 20260905143339 | 88 | 314 | 2.0 | 6.0 | 0.00 | 0.00 | 0.00 | 69 | 1015.0 |
| 20260905142839 | 88 | 261 | 2.0 | 6.0 | 0.00 | 0.00 | 0.00 | 70 | 1015.0 |
| 20260905142338 | 88 | 255 | 2.0 | 6.0 | 0.00 | 0.00 | 0.00 | 70 | 1015.0 |
| 20260905141838 | 88 | 332 | 3.0 | 8.0 | 0.00 | 0.00 | 0.00 | 69 | 1015.0 |
| 20260905141338 | 87 | 236 | 3.0 | 8.0 | 0.00 | 0.00 | 0.00 | 70 | 1014.9 |
| 20260905140833 | 87 | 336 | 2.0 | 8.0 | 0.00 | 0.00 | 0.00 | 71 | 1014.9 |
| 20260905140326 | 87 | 336 | 3.0 | 4.0 | 0.00 | 0.00 | 0.00 | 72 | 1015.0 |
| 20260905140045 | 86 | 345 | 3.0 | 6.0 | 0.00 | 0.00 | 0.00 | 72 | 1015.0 |
| 20260905135314 | 86 | 347 | 2.0 | 6.0 | 0.00 | 0.00 | 0.00 | 72 | 1015.0 |
| 20260905134809 | 85 | 285 | 2.0 | 6.0 | 0.00 | 0.00 | 0.00 | 72 | 1015.0 |
| 20260905134303 | 85 | 293 | 2.0 | 6.0 | 0.00 | 0.00 | 0.00 | 74 | 1015.0 |
| 20260905133756 | 84 | 323 | 2.0 | 7.0 | 0.00 | 0.00 | 0.00 | 75 | 1014.9 |
| 20260905133250 | 83 | 296 | 2.0 | 7.0 | 0.00 | 0.00 | 0.00 | 76 | 1015.0 |
| 20260905132744 | 82 | 275 | 0.0 | 4.0 | 0.00 | 0.00 | 0.00 | 78 | 1015.0 |
| 20260905132239 | 82 | 247 | 0.0 | 0.0 | 0.00 | 0.00 | 0.00 | 80 | 1015.0 |
| 20260905131733 | 81 | 284 | 0.0 | 0.0 | 0.00 | 0.00 | 0.00 | 82 | 1015.0 |
| 20260905131227 | 80 | 218 | 0.0 | 0.0 | 0.00 | 0.00 | 0.00 | 83 | 1015.0 |
| 20260905130721 | 79 | 218 | 0.0 | 1.0 | 0.00 | 0.00 | 0.00 | 84 | 1015.0 |
| 20260905130228 | 79 | 218 | 1.0 | 2.0 | 0.00 | 0.00 | 0.00 | 84 | 1015.0 |
| 20260905125709 | 79 | 218 | 0.0 | 2.0 | 0.00 | 0.00 | 0.00 | 86 | 1015.0 |
| 20260905125202 | 78 | 88 | 0.0 | 0.0 | 0.00 | 0.00 | 0.00 | 87 | 1014.9 |
| 20260905124657 | 78 | 88 | 0.0 | 0.0 | 0.00 | 0.00 | 0.00 | 88 | 1014.9 |
| 20260905124414 | 77 | 88 | 0.0 | 0.0 | 0.00 | 0.00 | 0.00 | 88 | 1014.8 |
| 20260905123909 | 77 | 88 | 0.0 | 0.0 | 0.00 | 0.00 | 0.00 | 88 | 1014.9 |
| 20260905123139 | 76 | 88 | 0.0 | 0.0 | 0.00 | 0.00 | 0.00 | 88 | 1014.7 |
| 20260905122853 | 76 | 88 | 0.0 | 0.0 | 0.00 | 0.00 | 0.00 | 88 | 1014.8 |
| 20260905122127 | 76 | 88 | 0.0 | 0.0 | 0.00 | 0.00 | 0.00 | 88 | 1014.7 |
| 20260905121633 | 76 | 88 | 0.0 | 0.0 | 0.00 | 0.00 | 0.00 | 88 | 1014.7 |
| 20260905121114 | 76 | 88 | 0.0 | 0.0 | 0.00 | 0.00 | 0.00 | 87 | 1014.8 |
| 20260905120609 | 76 | 88 | 0.0 | 0.0 | 0.00 | 0.00 | 0.00 | 87 | 1014.7 |
| 20260905120333 | 76 | 88 | 0.0 | 0.0 | 0.00 | 0.00 | 0.00 | 87 | 1014.5 |
| 20260905115557 | 76 | 88 | 0.0 | 0.0 | 0.00 | 0.00 | 0.00 | 87 | 1014.4 |
| 20260905115537 | 76 | 88 | 0.0 | 0.0 | 0.00 | 0.00 | 0.00 | 86 | 1014.4 |
| 20260905114810 | 76 | 88 | 0.0 | 0.0 | 0.00 | 0.00 | 0.00 | 86 | 1014.3 |
| 20260905114259 | 76 | 88 | 0.0 | 0.0 | 0.00 | 0.00 | 0.00 | 86 | 1014.3 |
| 20260905113532 | 76 | 88 | 0.0 | 0.0 | 0.00 | 0.00 | 0.00 | 86 | 1014.2 |
| 20260905113031 | 76 | 49 | 0.0 | 0.0 | 0.00 | 0.00 | 0.00 | 86 | 1014.1 |
| 20260905112524 | 77 | 49 | 0.0 | 0.0 | 0.00 | 0.00 | 0.00 | 85 | 1014.1 |
| 20260905112024 | 77 | 49 | 0.0 | 0.0 | 0.00 | 0.00 | 0.00 | 85 | 1014.1 |
| 20260905111743 | 77 | 49 | 0.0 | 0.0 | 0.00 | 0.00 | 0.00 | 85 | 1014.1 |
| 20260905111248 | 77 | 49 | 0.0 | 0.0 | 0.00 | 0.00 | 0.00 | 84 | 1014.0 |
| 20260905110521 | 77 | 49 | 0.0 | 0.0 | 0.00 | 0.00 | 0.00 | 83 | 1014.0 |
| 20260905110242 | 77 | 49 | 0.0 | 0.0 | 0.00 | 0.00 | 0.00 | 83 | 1014.0 |
| 20260905105518 | 78 | 49 | 0.0 | 0.0 | 0.00 | 0.00 | 0.00 | 83 | 1014.1 |
| 20260905105016 | 78 | 49 | 0.0 | 0.0 | 0.00 | 0.00 | 0.00 | 83 | 1014.0 |
| 20260905104512 | 78 | 49 | 0.0 | 0.0 | 0.00 | 0.00 | 0.00 | 82 | 1013.9 |
| 20260905104010 | 78 | 49 | 0.0 | 0.0 | 0.00 | 0.00 | 0.00 | 82 | 1014.0 |
| 20260905103510 | 78 | 306 | 0.0 | 0.0 | 0.00 | 0.00 | 0.00 | 82 | 1014.1 |
| 20260905103011 | 78 | 306 | 0.0 | 0.0 | 0.00 | 0.00 | 0.00 | 81 | 1014.1 |
| 20260905102510 | 79 | 306 | 0.0 | 0.0 | 0.00 | 0.00 | 0.00 | 81 | 1014.2 |
| 20260905102012 | 79 | 306 | 0.0 | 0.0 | 0.00 | 0.00 | 0.00 | 80 | 1014.0 |
| 20260905101510 | 79 | 306 | 0.0 | 0.0 | 0.00 | 0.00 | 0.00 | 80 | 1014.1 |
| 20260905101233 | 79 | 306 | 0.0 | 0.0 | 0.00 | 0.00 | 0.00 | 80 | 1014.2 |
| 20260905100510 | 80 | 306 | 0.0 | 0.0 | 0.00 | 0.00 | 0.00 | 80 | 1014.1 |
| 20260905100011 | 80 | 306 | 0.0 | 0.0 | 0.00 | 0.00 | 0.00 | 79 | 1014.2 |
| 20260905095509 | 80 | 306 | 0.0 | 0.0 | 0.00 | 0.00 | 0.00 | 79 | 1014.1 |
| 20260905095011 | 80 | 306 | 0.0 | 0.0 | 0.00 | 0.00 | 0.00 | 78 | 1014.1 |
| 20260905094954 | 80 | 306 | 0.0 | 0.0 | 0.00 | 0.00 | 0.00 | 78 | 1014.1 |
| 20260905094024 | 80 | 307 | 0.0 | 0.0 | 0.00 | 0.00 | 0.00 | 78 | 1014.1 |
| 20260905093510 | 81 | 281 | 0.0 | 0.0 | 0.00 | 0.00 | 0.00 | 77 | 1014.2 |
| 20260905093017 | 81 | 276 | 0.0 | 3.0 | 0.00 | 0.00 | 0.00 | 77 | 1014.1 |
| 20260905092458 | 81 | 282 | 1.0 | 3.0 | 0.00 | 0.00 | 0.00 | 77 | 1014.1 |
| 20260905091952 | 81 | 308 | 1.0 | 3.0 | 0.00 | 0.00 | 0.00 | 77 | 1014.0 |
| 20260905091447 | 81 | 286 | 1.0 | 4.0 | 0.00 | 0.00 | 0.00 | 78 | 1014.2 |
| 20260905090940 | 80 | 306 | 1.0 | 4.0 | 0.00 | 0.00 | 0.00 | 78 | 1014.3 |
| 20260905090434 | 80 | 328 | 1.0 | 4.0 | 0.00 | 0.00 | 0.00 | 78 | 1014.2 |
| 20260905090200 | 80 | 295 | 0.0 | 3.0 | 0.00 | 0.00 | 0.00 | 78 | 1014.2 |
| 20260905085422 | 80 | 275 | 0.0 | 0.0 | 0.00 | 0.00 | 0.00 | 78 | 1014.2 |
| 20260905084916 | 80 | 309 | 0.0 | 0.0 | 0.00 | 0.00 | 0.00 | 78 | 1014.3 |
| 20260905084410 | 80 | 297 | 0.0 | 0.0 | 0.00 | 0.00 | 0.00 | 78 | 1014.3 |
| 20260905083905 | 80 | 289 | 0.0 | 0.0 | 0.00 | 0.00 | 0.00 | 78 | 1014.3 |
| 20260905083632 | 81 | 307 | 0.0 | 2.0 | 0.00 | 0.00 | 0.00 | 78 | 1014.3 |
| 20260905082852 | 81 | 279 | 1.0 | 3.0 | 0.00 | 0.00 | 0.00 | 78 | 1014.2 |
| 20260905082346 | 81 | 320 | 0.0 | 3.0 | 0.00 | 0.00 | 0.00 | 78 | 1014.3 |
| 20260905082108 | 81 | 313 | 0.0 | 0.0 | 0.00 | 0.00 | 0.00 | 77 | 1014.4 |
| 20260905081334 | 81 | 301 | 0.0 | 0.0 | 0.00 | 0.00 | 0.00 | 77 | 1014.5 |
| 20260905080827 | 81 | 309 | 1.0 | 2.0 | 0.00 | 0.00 | 0.00 | 77 | 1014.5 |
| 20260905080322 | 81 | 311 | 1.0 | 3.0 | 0.00 | 0.00 | 0.00 | 77 | 1014.5 |
| 20260905075816 | 81 | 299 | 1.0 | 4.0 | 0.00 | 0.00 | 0.00 | 77 | 1014.4 |
| 20260905075310 | 81 | 270 | 2.0 | 4.0 | 0.00 | 0.00 | 0.00 | 76 | 1014.5 |
| 20260905074805 | 82 | 320 | 1.0 | 4.0 | 0.00 | 0.00 | 0.00 | 76 | 1014.5 |
| 20260905074258 | 82 | 266 | 0.0 | 4.0 | 0.00 | 0.00 | 0.00 | 75 | 1014.4 |
| 20260905073805 | 82 | 260 | 1.0 | 4.0 | 0.00 | 0.00 | 0.00 | 75 | 1014.4 |
| 20260905073517 | 82 | 299 | 2.0 | 4.0 | 0.00 | 0.00 | 0.00 | 75 | 1014.4 |
| 20260905073010 | 82 | 255 | 1.0 | 4.0 | 0.00 | 0.00 | 0.00 | 75 | 1014.2 |
| 20260905072234 | 82 | 301 | 0.0 | 2.0 | 0.00 | 0.00 | 0.00 | 75 | 1014.3 |
| 20260905071728 | 82 | 263 | 0.0 | 1.0 | 0.00 | 0.00 | 0.00 | 75 | 1014.3 |
| 20260905071222 | 82 | 252 | 1.0 | 5.0 | 0.00 | 0.00 | 0.00 | 75 | 1014.3 |
| 20260905070720 | 82 | 213 | 1.0 | 5.0 | 0.00 | 0.00 | 0.00 | 75 | 1014.4 |
| 20260905070439 | 82 | 247 | 1.0 | 5.0 | 0.00 | 0.00 | 0.00 | 75 | 1014.3 |
| 20260905065935 | 82 | 231 | 1.0 | 4.0 | 0.00 | 0.00 | 0.00 | 76 | 1014.2 |
| 20260905065222 | 81 | 263 | 1.0 | 3.0 | 0.00 | 0.00 | 0.00 | 76 | 1014.2 |
| 20260905064720 | 81 | 225 | 1.0 | 3.0 | 0.00 | 0.00 | 0.00 | 76 | 1014.2 |
| 20260905064219 | 81 | 213 | 1.0 | 5.0 | 0.00 | 0.00 | 0.00 | 76 | 1014.2 |
| 20260905063719 | 81 | 197 | 1.0 | 5.0 | 0.00 | 0.00 | 0.00 | 76 | 1014.3 |
| 20260905063442 | 81 | 262 | 0.0 | 3.0 | 0.00 | 0.00 | 0.00 | 76 | 1014.3 |
| 20260905062942 | 81 | 247 | 0.0 | 0.0 | 0.00 | 0.00 | 0.00 | 75 | 1014.3 |
| 20260905062217 | 81 | 181 | 0.0 | 0.0 | 0.00 | 0.00 | 0.00 | 75 | 1014.4 |
| 20260905061718 | 81 | 208 | 0.0 | 0.0 | 0.00 | 0.00 | 0.00 | 75 | 1014.4 |
| 20260905061214 | 81 | 200 | 0.0 | 0.0 | 0.00 | 0.00 | 0.00 | 75 | 1014.4 |
| 20260905060953 | 81 | 164 | 0.0 | 0.0 | 0.00 | 0.00 | 0.00 | 75 | 1014.5 |
| 20260905060216 | 81 | 229 | 0.0 | 0.0 | 0.00 | 0.00 | 0.00 | 75 | 1014.4 |
| 20260905055715 | 82 | 227 | 0.0 | 0.0 | 0.00 | 0.00 | 0.00 | 75 | 1014.5 |
| 20260905055217 | 82 | 184 | 0.0 | 0.0 | 0.00 | 0.00 | 0.00 | 75 | 1014.5 |
| 20260905054944 | 82 | 195 | 0.0 | 0.0 | 0.00 | 0.00 | 0.00 | 75 | 1014.6 |
| 20260905054216 | 82 | 195 | 0.0 | 0.0 | 0.00 | 0.00 | 0.00 | 75 | 1014.6 |
| 20260905053708 | 82 | 195 | 0.0 | 0.0 | 0.00 | 0.00 | 0.00 | 75 | 1014.6 |
| 20260905053433 | 82 | 195 | 0.0 | 0.0 | 0.00 | 0.00 | 0.00 | 75 | 1014.7 |
| 20260905052708 | 82 | 193 | 0.0 | 0.0 | 0.00 | 0.00 | 0.00 | 74 | 1014.7 |
| 20260905052207 | 82 | 193 | 0.0 | 0.0 | 0.00 | 0.00 | 0.00 | 74 | 1014.7 |
| 20260905052157 | 82 | 186 | 0.0 | 0.0 | 0.00 | 0.00 | 0.00 | 74 | 1014.7 |
| 20260905051208 | 82 | 186 | 0.0 | 0.0 | 0.00 | 0.00 | 0.00 | 74 | 1014.7 |
| 20260905050708 | 82 | 165 | 0.0 | 0.0 | 0.00 | 0.00 | 0.00 | 73 | 1014.7 |
| 20260905050432 | 83 | 157 | 0.0 | 0.0 | 0.00 | 0.00 | 0.00 | 73 | 1014.7 |
| 20260905045705 | 83 | 176 | 0.0 | 0.0 | 0.00 | 0.00 | 0.00 | 73 | 1014.8 |
| 20260905045206 | 83 | 179 | 0.0 | 0.0 | 0.00 | 0.00 | 0.00 | 73 | 1014.7 |
| 20260905044705 | 83 | 235 | 0.0 | 4.0 | 0.00 | 0.00 | 0.00 | 73 | 1014.7 |
| 20260905044205 | 83 | 153 | 0.0 | 4.0 | 0.00 | 0.00 | 0.00 | 73 | 1014.6 |
| 20260905043933 | 83 | 236 | 0.0 | 0.0 | 0.00 | 0.00 | 0.00 | 73 | 1014.7 |
| 20260905043205 | 83 | 183 | 0.0 | 0.0 | 0.00 | 0.00 | 0.00 | 73 | 1014.7 |
| 20260905042941 | 83 | 171 | 0.0 | 0.0 | 0.00 | 0.00 | 0.00 | 73 | 1014.7 |
| 20260905042441 | 83 | 201 | 0.0 | 0.0 | 0.00 | 0.00 | 0.00 | 72 | 1014.7 |
| 20260905041922 | 83 | 213 | 0.0 | 0.0 | 0.00 | 0.00 | 0.00 | 72 | 1014.7 |
| 20260905041426 | 83 | 172 | 0.0 | 0.0 | 0.00 | 0.00 | 0.00 | 72 | 1014.8 |
| 20260905040925 | 83 | 172 | 0.0 | 0.0 | 0.00 | 0.00 | 0.00 | 72 | 1014.8 |
| 20260905040156 | 83 | 147 | 0.0 | 0.0 | 0.00 | 0.00 | 0.00 | 72 | 1014.7 |
| 20260905035702 | 83 | 218 | 0.0 | 0.0 | 0.00 | 0.00 | 0.00 | 72 | 1014.7 |
| 20260905035159 | 83 | 177 | 0.0 | 0.0 | 0.00 | 0.00 | 0.00 | 72 | 1014.7 |
| 20260905034657 | 83 | 208 | 0.0 | 0.0 | 0.00 | 0.00 | 0.00 | 72 | 1014.6 |
| 20260905034150 | 83 | 213 | 0.0 | 0.0 | 0.00 | 0.00 | 0.00 | 72 | 1014.6 |
| 20260905033651 | 84 | 202 | 0.0 | 0.0 | 0.00 | 0.00 | 0.00 | 72 | 1014.6 |
| 20260905033145 | 84 | 200 | 0.0 | 0.0 | 0.00 | 0.00 | 0.00 | 72 | 1014.6 |
| 20260905032639 | 84 | 259 | 0.0 | 0.0 | 0.00 | 0.00 | 0.00 | 71 | 1014.7 |
| 20260905032134 | 84 | 172 | 0.0 | 0.0 | 0.00 | 0.00 | 0.00 | 72 | 1014.7 |
| 20260905031627 | 84 | 208 | 0.0 | 0.0 | 0.00 | 0.00 | 0.00 | 72 | 1014.7 |
| 20260905031350 | 84 | 159 | 0.0 | 0.0 | 0.00 | 0.00 | 0.00 | 72 | 1014.6 |
| 20260905030616 | 84 | 157 | 0.0 | 0.0 | 0.00 | 0.00 | 0.00 | 72 | 1014.6 |
| 20260905030122 | 84 | 213 | 0.0 | 0.0 | 0.00 | 0.00 | 0.00 | 71 | 1014.5 |
| 20260905025603 | 84 | 188 | 0.0 | 0.0 | 0.00 | 0.00 | 0.00 | 71 | 1014.5 |
| 20260905025056 | 84 | 195 | 0.0 | 0.0 | 0.00 | 0.00 | 0.00 | 71 | 1014.4 |
| 20260905024551 | 85 | 229 | 0.0 | 0.0 | 0.00 | 0.00 | 0.00 | 71 | 1014.5 |
| 20260905024045 | 85 | 208 | 0.0 | 0.0 | 0.00 | 0.00 | 0.00 | 71 | 1014.5 |
| 20260905024022 | 85 | 208 | 0.0 | 0.0 | 0.00 | 0.00 | 0.00 | 71 | 1014.5 |
| 20260905023525 | 85 | 189 | 0.0 | 0.0 | 0.00 | 0.00 | 0.00 | 71 | 1014.4 |
| 20260905022527 | 85 | 182 | 0.0 | 0.0 | 0.00 | 0.00 | 0.00 | 71 | 1014.4 |
| 20260905022248 | 85 | 193 | 0.0 | 0.0 | 0.00 | 0.00 | 0.00 | 71 | 1014.5 |
| 20260905021515 | 86 | 186 | 0.0 | 0.0 | 0.00 | 0.00 | 0.00 | 71 | 1014.5 |
| 20260905021010 | 86 | 201 | 0.0 | 0.0 | 0.00 | 0.00 | 0.00 | 71 | 1014.4 |
| 20260905020503 | 86 | 201 | 0.0 | 0.0 | 0.00 | 0.00 | 0.00 | 71 | 1014.3 |
| 20260905015958 | 86 | 201 | 0.0 | 0.0 | 0.00 | 0.00 | 0.00 | 70 | 1014.3 |
| 20260905015452 | 87 | 201 | 0.0 | 0.0 | 0.00 | 0.00 | 0.00 | 70 | 1014.4 |
| 20260905014945 | 87 | 201 | 0.0 | 0.0 | 0.00 | 0.00 | 0.00 | 70 | 1014.4 |
| 20260905014439 | 87 | 201 | 0.0 | 0.0 | 0.00 | 0.00 | 0.00 | 69 | 1014.3 |
| 20260905013934 | 87 | 201 | 0.0 | 0.0 | 0.00 | 0.00 | 0.00 | 68 | 1014.2 |
| 20260905013427 | 88 | 201 | 0.0 | 0.0 | 0.00 | 0.00 | 0.00 | 68 | 1014.1 |
| 20260905012921 | 88 | 201 | 0.0 | 0.0 | 0.00 | 0.00 | 0.00 | 67 | 1014.0 |
| 20260905012415 | 89 | 201 | 0.0 | 0.0 | 0.00 | 0.00 | 0.00 | 66 | 1013.9 |
| 20260905011910 | 89 | 236 | 0.0 | 0.0 | 0.00 | 0.00 | 0.00 | 65 | 1013.9 |
| 20260905011404 | 89 | 203 | 0.0 | 0.0 | 0.00 | 0.00 | 0.00 | 65 | 1013.9 |
| 20260905010857 | 90 | 218 | 0.0 | 0.0 | 0.00 | 0.00 | 0.00 | 64 | 1013.8 |
| 20260905010351 | 90 | 218 | 0.0 | 0.0 | 0.00 | 0.00 | 0.00 | 63 | 1013.9 |
| 20260905005845 | 91 | 241 | 0.0 | 0.0 | 0.00 | 0.00 | 0.00 | 62 | 1013.9 |
| 20260905005608 | 91 | 243 | 0.0 | 0.0 | 0.00 | 0.00 | 0.00 | 62 | 1013.8 |
| 20260905004833 | 91 | 258 | 1.0 | 4.0 | 0.00 | 0.00 | 0.00 | 61 | 1013.8 |
| 20260905004327 | 92 | 297 | 1.0 | 4.0 | 0.00 | 0.00 | 0.00 | 60 | 1013.9 |
| 20260905003821 | 92 | 284 | 1.0 | 5.0 | 0.00 | 0.00 | 0.00 | 60 | 1013.8 |
| 20260905003315 | 92 | 235 | 0.0 | 5.0 | 0.00 | 0.00 | 0.00 | 59 | 1013.7 |
| 20260905002815 | 93 | 250 | 0.0 | 3.0 | 0.00 | 0.00 | 0.00 | 59 | 1013.7 |
| 20260905002533 | 93 | 250 | 1.0 | 4.0 | 0.00 | 0.00 | 0.00 | 58 | 1013.8 |
| 20260905001816 | 93 | 301 | 2.0 | 4.0 | 0.00 | 0.00 | 0.00 | 57 | 1013.8 |
| 20260905001544 | 94 | 237 | 1.0 | 4.0 | 0.00 | 0.00 | 0.00 | 57 | 1013.7 |
| 20260905000811 | 94 | 276 | 1.0 | 7.0 | 0.00 | 0.00 | 0.00 | 56 | 1013.8 |
| 20260905000310 | 94 | 243 | 2.0 | 7.0 | 0.00 | 0.00 | 0.00 | 55 | 1013.7 |
| 20260904235810 | 95 | 245 | 1.0 | 5.0 | 0.00 | 0.00 | 0.00 | 54 | 1013.7 |
| 20260904235309 | 95 | 257 | 2.0 | 6.0 | 0.00 | 0.00 | 0.00 | 54 | 1013.7 |
| 20260904234810 | 96 | 257 | 3.0 | 7.0 | 0.00 | 0.00 | 0.00 | 52 | 1013.6 |
| 20260904234312 | 96 | 267 | 3.0 | 7.0 | 0.00 | 0.00 | 0.00 | 51 | 1013.7 |
| 20260904233811 | 97 | 234 | 3.0 | 8.0 | 0.00 | 0.00 | 0.00 | 51 | 1013.7 |
| 20260904233800 | 98 | 279 | 3.0 | 8.0 | 0.00 | 0.00 | 0.00 | 50 | 1013.7 |
| 20260904232813 | 98 | 271 | 3.0 | 8.0 | 0.00 | 0.00 | 0.00 | 50 | 1013.7 |
| 20260904231807 | 99 | 283 | 2.0 | 6.0 | 0.00 | 0.00 | 0.00 | 49 | 1013.6 |
| 20260904231320 | 99 | 6 | 3.0 | 8.0 | 0.00 | 0.00 | 0.00 | 48 | 1013.6 |
| 20260904231037 | 99 | 266 | 3.0 | 8.0 | 0.00 | 0.00 | 0.00 | 48 | 1013.6 |
| 20260904230532 | 99 | 290 | 3.0 | 7.0 | 0.00 | 0.00 | 0.00 | 47 | 1013.6 |
| 20260904225812 | 99 | 262 | 3.0 | 8.0 | 0.00 | 0.00 | 0.00 | 47 | 1013.6 |
| 20260904225536 | 100 | 262 | 1.0 | 8.0 | 0.00 | 0.00 | 0.00 | 48 | 1013.7 |
| 20260904225027 | 100 | 283 | 1.0 | 7.0 | 0.00 | 0.00 | 0.00 | 49 | 1013.6 |
| 20260904224752 | 99 | 237 | 2.0 | 7.0 | 0.00 | 0.00 | 0.00 | 48 | 1013.6 |
| 20260904223808 | 100 | 322 | 3.0 | 9.0 | 0.00 | 0.00 | 0.00 | 48 | 1013.5 |
| 20260904223306 | 99 | 255 | 5.0 | 10.0 | 0.00 | 0.00 | 0.00 | 48 | 1013.5 |
| 20260904222806 | 99 | 290 | 5.0 | 10.0 | 0.00 | 0.00 | 0.00 | 48 | 1013.5 |
| 20260904222307 | 100 | 246 | 5.0 | 10.0 | 0.00 | 0.00 | 0.00 | 47 | 1013.6 |
| 20260904221806 | 100 | 234 | 4.0 | 9.0 | 0.00 | 0.00 | 0.00 | 47 | 1013.5 |
| 20260904221306 | 101 | 231 | 3.0 | 9.0 | 0.00 | 0.00 | 0.00 | 47 | 1013.6 |
| 20260904220806 | 101 | 246 | 2.0 | 9.0 | 0.00 | 0.00 | 0.00 | 46 | 1013.5 |
| 20260904220529 | 101 | 270 | 2.0 | 9.0 | 0.00 | 0.00 | 0.00 | 46 | 1013.5 |
| 20260904215804 | 100 | 247 | 3.0 | 9.0 | 0.00 | 0.00 | 0.00 | 48 | 1013.7 |
| 20260904215305 | 100 | 303 | 4.0 | 9.0 | 0.00 | 0.00 | 0.00 | 47 | 1013.6 |
| 20260904214802 | 100 | 251 | 4.0 | 9.0 | 0.00 | 0.00 | 0.00 | 46 | 1013.8 |